Location: Unspecified
(0.0000°N, 0.0000°E)
Time: 15:26:16
(UTC+00:00)

ISS - Pass Details

Date: 20 February 2018
Orbit: 403 x 406 km, 51.6° (Epoch: 26 February)

Event Time Altitude Azimuth Distance (km) Brightness Sun altitude
Rises 18:45:17 0° 291° (WNW) 2,305 1.1 -7.8°
Reaches altitude 10° 18:48:21 10° 259° (W) 1,451 0.7 -8.5°
Maximum altitude 18:49:45 12° 234° (SW) 1,325 -0.1 -8.9°
Drops below altitude 10° 18:51:09 10° 208° (SSW) 1,454 -0.4 -9.2°
Sets 18:54:15 0° 176° (S) 2,318 0.1 -10.0°
